owner,sensor,date,latitude,longitude,vertical_datum,sea_water_temperature,qcFlag 
ENP,ioos.station.NOAA.NDBC:BDVF1:1,2014-12-08T15:00:00Z,25.4780,-80.9890,1.0,22.11,2 
ENP,ioos.station.NOAA.NDBC:BDVF1:1,2014-12-08T17:00:00Z,25.4780,-80.9890,1.0,22.29,2 
ENP,ioos.station.NOAA.NDBC:BDVF1:1,2014-12-08T18:00:00Z,25.4780,-80.9890,1.0,22.44,2 
ENP,ioos.station.NOAA.NDBC:BDVF1:1,2014-12-08T19:00:00Z,25.4780,-80.9890,1.0,22.62,2 
ENP,ioos.station.NOAA.NDBC:BDVF1:1,2014-12-08T20:00:00Z,25.4780,-80.9890,1.0,22.8,2 
ENP,ioos.station.NOAA.NDBC:BDVF1:1,2014-12-08T21:00:00Z,25.4780,-80.9890,1.0,22.97,2 
ENP,ioos.station.NOAA.NDBC:BDVF1:1,2014-12-08T22:00:00Z,25.4780,-80.9890,1.0,23.11,2 
ENP,ioos.station.NOAA.NDBC:BDVF1:1,2014-12-09T00:00:00Z,25.4780,-80.9890,1.0,23.12,2 
ENP,ioos.station.NOAA.NDBC:BDVF1:1,2014-12-09T01:00:00Z,25.4780,-80.9890,1.0,23.0,2 
ENP,ioos.station.NOAA.NDBC:BDVF1:1,2014-12-09T02:00:00Z,25.4780,-80.9890,1.0,22.88,2 
ENP,ioos.station.NOAA.NDBC:BDVF1:1,2014-12-09T03:00:00Z,25.4780,-80.9890,1.0,22.74,2 
ENP,ioos.station.NOAA.NDBC:BDVF1:1,2014-12-09T04:00:00Z,25.4780,-80.9890,1.0,22.63,2 
ENP,ioos.station.NOAA.NDBC:BDVF1:1,2014-12-09T05:00:00Z,25.4780,-80.9890,1.0,22.51,2 
ENP,ioos.station.NOAA.NDBC:BDVF1:1,2014-12-09T06:00:00Z,25.4780,-80.9890,1.0,22.39,2 
ENP,ioos.station.NOAA.NDBC:BDVF1:1,2014-12-09T07:00:00Z,25.4780,-80.9890,1.0,22.28,2 
ENP,ioos.station.NOAA.NDBC:BDVF1:1,2014-12-09T08:00:00Z,25.4780,-80.9890,1.0,22.19,2 
ENP,ioos.station.NOAA.NDBC:BDVF1:1,2014-12-09T09:00:00Z,25.4780,-80.9890,1.0,22.12,2 
ENP,ioos.station.NOAA.NDBC:BDVF1:1,2014-12-09T10:00:00Z,25.4780,-80.9890,1.0,22.03,2 
ENP,ioos.station.NOAA.NDBC:BDVF1:1,2014-12-09T12:00:00Z,25.4780,-80.9890,1.0,21.79,2 
ENP,ioos.station.NOAA.NDBC:BDVF1:1,2014-12-09T13:00:00Z,25.4780,-80.9890,1.0,21.66,2 
ENP,ioos.station.NOAA.NDBC:BDVF1:1,2014-12-09T14:00:00Z,25.4780,-80.9890,1.0,21.57,2 
ENP,ioos.station.NOAA.NDBC:BDVF1:1,2014-12-09T15:00:00Z,25.4780,-80.9890,1.0,21.51,2 
ENP,ioos.station.NOAA.NDBC:BDVF1:1,2014-12-09T16:00:00Z,25.4780,-80.9890,1.0,21.49,2 
ENP,ioos.station.NOAA.NDBC:BDVF1:1,2014-12-09T17:00:00Z,25.4780,-80.9890,1.0,21.49,2 
ENP,ioos.station.NOAA.NDBC:BDVF1:1,2014-12-09T18:00:00Z,25.4780,-80.9890,1.0,21.47,2 
ENP,ioos.station.NOAA.NDBC:BDVF1:1,2014-12-09T19:00:00Z,25.4780,-80.9890,1.0,21.44,2 
ENP,ioos.station.NOAA.NDBC:BDVF1:1,2014-12-09T20:00:00Z,25.4780,-80.9890,1.0,21.4,2 
ENP,ioos.station.NOAA.NDBC:BDVF1:1,2014-12-09T21:00:00Z,25.4780,-80.9890,1.0,21.36,2 
ENP,ioos.station.NOAA.NDBC:BDVF1:1,2014-12-09T22:00:00Z,25.4780,-80.9890,1.0,21.34,2 
ENP,ioos.station.NOAA.NDBC:BDVF1:1,2014-12-09T23:00:00Z,25.4780,-80.9890,1.0,21.33,2 
ENP,ioos.station.NOAA.NDBC:BDVF1:1,2014-12-10T00:00:00Z,25.4780,-80.9890,1.0,21.29,2 
ENP,ioos.station.NOAA.NDBC:BDVF1:1,2014-12-10T01:00:00Z,25.4780,-80.9890,1.0,21.19,2 
ENP,ioos.station.NOAA.NDBC:BDVF1:1,2014-12-10T03:00:00Z,25.4780,-80.9890,1.0,20.92,2 
ENP,ioos.station.NOAA.NDBC:BDVF1:1,2014-12-10T04:00:00Z,25.4780,-80.9890,1.0,20.77,2 
ENP,ioos.station.NOAA.NDBC:BDVF1:1,2014-12-10T05:00:00Z,25.4780,-80.9890,1.0,20.57,2 
ENP,ioos.station.NOAA.NDBC:BDVF1:1,2014-12-10T06:00:00Z,25.4780,-80.9890,1.0,20.36,2 
ENP,ioos.station.NOAA.NDBC:BDVF1:1,2014-12-10T07:00:00Z,25.4780,-80.9890,1.0,20.14,2 
ENP,ioos.station.NOAA.NDBC:BDVF1:1,2014-12-10T08:00:00Z,25.4780,-80.9890,1.0,19.93,2 
ENP,ioos.station.NOAA.NDBC:BDVF1:1,2014-12-10T09:00:00Z,25.4780,-80.9890,1.0,19.76,2 
ENP,ioos.station.NOAA.NDBC:BDVF1:1,2014-12-10T10:00:00Z,25.4780,-80.9890,1.0,19.66,2 
ENP,ioos.station.NOAA.NDBC:BDVF1:1,2014-12-10T11:00:00Z,25.4780,-80.9890,1.0,19.55,2 
ENP,ioos.station.NOAA.NDBC:BDVF1:1,2014-12-10T12:00:00Z,25.4780,-80.9890,1.0,19.44,2 
ENP,ioos.station.NOAA.NDBC:BDVF1:1,2014-12-10T13:00:00Z,25.4780,-80.9890,1.0,19.22,2 
ENP,ioos.station.NOAA.NDBC:BDVF1:1,2014-12-10T14:00:00Z,25.4780,-80.9890,1.0,19.06,2 
ENP,ioos.station.NOAA.NDBC:BDVF1:1,2014-12-10T15:00:00Z,25.4780,-80.9890,1.0,18.97,2 
ENP,ioos.station.NOAA.NDBC:BDVF1:1,2014-12-10T16:00:00Z,25.4780,-80.9890,1.0,18.99,2 
ENP,ioos.station.NOAA.NDBC:BDVF1:1,2014-12-10T17:00:00Z,25.4780,-80.9890,1.0,19.04,2 
ENP,ioos.station.NOAA.NDBC:BDVF1:1,2014-12-10T18:00:00Z,25.4780,-80.9890,1.0,19.13,2 
ENP,ioos.station.NOAA.NDBC:BDVF1:1,2014-12-10T19:00:00Z,25.4780,-80.9890,1.0,19.27,2 
ENP,ioos.station.NOAA.NDBC:BDVF1:1,2014-12-10T21:00:00Z,25.4780,-80.9890,1.0,19.43,2 
ENP,ioos.station.NOAA.NDBC:BDVF1:1,2014-12-10T22:00:00Z,25.4780,-80.9890,1.0,19.46,2 
ENP,ioos.station.NOAA.NDBC:BDVF1:1,2014-12-10T23:00:00Z,25.4780,-80.9890,1.0,19.5,2 
ENP,ioos.station.NOAA.NDBC:BDVF1:1,2014-12-11T00:00:00Z,25.4780,-80.9890,1.0,19.47,2 
ENP,ioos.station.NOAA.NDBC:BDVF1:1,2014-12-11T01:00:00Z,25.4780,-80.9890,1.0,19.33,2 
ENP,ioos.station.NOAA.NDBC:BDVF1:1,2014-12-11T02:00:00Z,25.4780,-80.9890,1.0,19.19,2 
ENP,ioos.station.NOAA.NDBC:BDVF1:1,2014-12-11T03:00:00Z,25.4780,-80.9890,1.0,19.02,2 
ENP,ioos.station.NOAA.NDBC:BDVF1:1,2014-12-11T04:00:00Z,25.4780,-80.9890,1.0,18.9,2 
ENP,ioos.station.NOAA.NDBC:BDVF1:1,2014-12-11T05:00:00Z,25.4780,-80.9890,1.0,18.79,2 
ENP,ioos.station.NOAA.NDBC:BDVF1:1,2014-12-11T06:00:00Z,25.4780,-80.9890,1.0,18.64,2 
ENP,ioos.station.NOAA.NDBC:BDVF1:1,2014-12-11T07:00:00Z,25.4780,-80.9890,1.0,18.53,2 
ENP,ioos.station.NOAA.NDBC:BDVF1:1,2014-12-11T09:00:00Z,25.4780,-80.9890,1.0,18.45,2 
ENP,ioos.station.NOAA.NDBC:BDVF1:1,2014-12-11T10:00:00Z,25.4780,-80.9890,1.0,18.31,2 
ENP,ioos.station.NOAA.NDBC:BDVF1:1,2014-12-11T11:00:00Z,25.4780,-80.9890,1.0,18.23,2 
ENP,ioos.station.NOAA.NDBC:BDVF1:1,2014-12-11T12:00:00Z,25.4780,-80.9890,1.0,18.13,2 
ENP,ioos.station.NOAA.NDBC:BDVF1:1,2014-12-11T13:00:00Z,25.4780,-80.9890,1.0,18.03,2 
ENP,ioos.station.NOAA.NDBC:BDVF1:1,2014-12-11T14:00:00Z,25.4780,-80.9890,1.0,17.95,2 
ENP,ioos.station.NOAA.NDBC:BDVF1:1,2014-12-11T15:00:00Z,25.4780,-80.9890,1.0,17.95,2 
ENP,ioos.station.NOAA.NDBC:BDVF1:1,2014-12-11T17:00:00Z,25.4780,-80.9890,1.0,18.16,2 
ENP,ioos.station.NOAA.NDBC:BDVF1:1,2014-12-11T18:00:00Z,25.4780,-80.9890,1.0,18.55,2 
ENP,ioos.station.NOAA.NDBC:BDVF1:1,2014-12-11T19:00:00Z,25.4780,-80.9890,1.0,18.87,2 
ENP,ioos.station.NOAA.NDBC:BDVF1:1,2014-12-11T21:00:00Z,25.4780,-80.9890,1.0,19.07,2 
ENP,ioos.station.NOAA.NDBC:BDVF1:1,2014-12-11T22:00:00Z,25.4780,-80.9890,1.0,19.09,2 
ENP,ioos.station.NOAA.NDBC:BDVF1:1,2014-12-11T23:00:00Z,25.4780,-80.9890,1.0,19.11,2 
ENP,ioos.station.NOAA.NDBC:BDVF1:1,2014-12-12T00:00:00Z,25.4780,-80.9890,1.0,19.08,2 
ENP,ioos.station.NOAA.NDBC:BDVF1:1,2014-12-12T01:00:00Z,25.4780,-80.9890,1.0,18.98,2 
ENP,ioos.station.NOAA.NDBC:BDVF1:1,2014-12-12T02:00:00Z,25.4780,-80.9890,1.0,18.89,2 
ENP,ioos.station.NOAA.NDBC:BDVF1:1,2014-12-12T03:00:00Z,25.4780,-80.9890,1.0,18.79,2 
ENP,ioos.station.NOAA.NDBC:BDVF1:1,2014-12-12T04:00:00Z,25.4780,-80.9890,1.0,18.68,2 
ENP,ioos.station.NOAA.NDBC:BDVF1:1,2014-12-12T05:00:00Z,25.4780,-80.9890,1.0,18.57,2 
ENP,ioos.station.NOAA.NDBC:BDVF1:1,2014-12-12T06:00:00Z,25.4780,-80.9890,1.0,18.46,2 
ENP,ioos.station.NOAA.NDBC:BDVF1:1,2014-12-12T07:00:00Z,25.4780,-80.9890,1.0,18.35,2 
ENP,ioos.station.NOAA.NDBC:BDVF1:1,2014-12-12T08:00:00Z,25.4780,-80.9890,1.0,18.25,2 
ENP,ioos.station.NOAA.NDBC:BDVF1:1,2014-12-12T09:00:00Z,25.4780,-80.9890,1.0,18.18,2 
ENP,ioos.station.NOAA.NDBC:BDVF1:1,2014-12-12T10:00:00Z,25.4780,-80.9890,1.0,18.11,2 
ENP,ioos.station.NOAA.NDBC:BDVF1:1,2014-12-12T11:00:00Z,25.4780,-80.9890,1.0,18.05,2 
ENP,ioos.station.NOAA.NDBC:BDVF1:1,2014-12-12T12:00:00Z,25.4780,-80.9890,1.0,18.01,2 
ENP,ioos.station.NOAA.NDBC:BDVF1:1,2014-12-12T13:00:00Z,25.4780,-80.9890,1.0,17.94,2 
ENP,ioos.station.NOAA.NDBC:BDVF1:1,2014-12-12T14:00:00Z,25.4780,-80.9890,1.0,17.88,2 
ENP,ioos.station.NOAA.NDBC:BDVF1:1,2014-12-12T15:00:00Z,25.4780,-80.9890,1.0,17.85,2 
ENP,ioos.station.NOAA.NDBC:BDVF1:1,2014-12-12T16:00:00Z,25.4780,-80.9890,1.0,17.86,2 
ENP,ioos.station.NOAA.NDBC:BDVF1:1,2014-12-12T17:00:00Z,25.4780,-80.9890,1.0,17.92,2 
ENP,ioos.station.NOAA.NDBC:BDVF1:1,2014-12-12T18:00:00Z,25.4780,-80.9890,1.0,18.11,2 
ENP,ioos.station.NOAA.NDBC:BDVF1:1,2014-12-12T19:00:00Z,25.4780,-80.9890,1.0,18.51,2 
ENP,ioos.station.NOAA.NDBC:BDVF1:1,2014-12-12T20:00:00Z,25.4780,-80.9890,1.0,18.76,2 
ENP,ioos.station.NOAA.NDBC:BDVF1:1,2014-12-12T21:00:00Z,25.4780,-80.9890,1.0,18.87,2 
ENP,ioos.station.NOAA.NDBC:BDVF1:1,2014-12-12T22:00:00Z,25.4780,-80.9890,1.0,18.85,2 
ENP,ioos.station.NOAA.NDBC:BDVF1:1,2014-12-12T23:00:00Z,25.4780,-80.9890,1.0,18.83,2 
ENP,ioos.station.NOAA.NDBC:BDVF1:1,2014-12-13T00:00:00Z,25.4780,-80.9890,1.0,18.79,2 
ENP,ioos.station.NOAA.NDBC:BDVF1:1,2014-12-13T01:00:00Z,25.4780,-80.9890,1.0,18.73,2 
ENP,ioos.station.NOAA.NDBC:BDVF1:1,2014-12-13T02:00:00Z,25.4780,-80.9890,1.0,18.65,2 
ENP,ioos.station.NOAA.NDBC:BDVF1:1,2014-12-13T05:00:00Z,25.4780,-80.9890,1.0,18.3,2 
ENP,ioos.station.NOAA.NDBC:BDVF1:1,2014-12-13T06:00:00Z,25.4780,-80.9890,1.0,18.19,2 
ENP,ioos.station.NOAA.NDBC:BDVF1:1,2014-12-13T07:00:00Z,25.4780,-80.9890,1.0,18.08,2 
ENP,ioos.station.NOAA.NDBC:BDVF1:1,2014-12-13T09:00:00Z,25.4780,-80.9890,1.0,17.86,2 
ENP,ioos.station.NOAA.NDBC:BDVF1:1,2014-12-13T10:00:00Z,25.4780,-80.9890,1.0,17.75,2 
ENP,ioos.station.NOAA.NDBC:BDVF1:1,2014-12-13T11:00:00Z,25.4780,-80.9890,1.0,17.66,2 
ENP,ioos.station.NOAA.NDBC:BDVF1:1,2014-12-13T12:00:00Z,25.4780,-80.9890,1.0,17.55,2 
ENP,ioos.station.NOAA.NDBC:BDVF1:1,2014-12-13T13:00:00Z,25.4780,-80.9890,1.0,17.49,2 
ENP,ioos.station.NOAA.NDBC:BDVF1:1,2014-12-13T14:00:00Z,25.4780,-80.9890,1.0,17.46,2 
ENP,ioos.station.NOAA.NDBC:BDVF1:1,2014-12-13T15:00:00Z,25.4780,-80.9890,1.0,17.44,2 
ENP,ioos.station.NOAA.NDBC:BDVF1:1,2014-12-13T16:00:00Z,25.4780,-80.9890,1.0,17.43,2 
ENP,ioos.station.NOAA.NDBC:BDVF1:1,2014-12-13T17:00:00Z,25.4780,-80.9890,1.0,17.56,2 
ENP,ioos.station.NOAA.NDBC:BDVF1:1,2014-12-13T18:00:00Z,25.4780,-80.9890,1.0,17.78,2 
ENP,ioos.station.NOAA.NDBC:BDVF1:1,2014-12-13T19:00:00Z,25.4780,-80.9890,1.0,17.98,2 
ENP,ioos.station.NOAA.NDBC:BDVF1:1,2014-12-13T20:00:00Z,25.4780,-80.9890,1.0,18.13,2 
ENP,ioos.station.NOAA.NDBC:BDVF1:1,2014-12-13T21:00:00Z,25.4780,-80.9890,1.0,18.22,2 
ENP,ioos.station.NOAA.NDBC:BDVF1:1,2014-12-13T22:00:00Z,25.4780,-80.9890,1.0,18.28,2 
ENP,ioos.station.NOAA.NDBC:BDVF1:1,2014-12-13T23:00:00Z,25.4780,-80.9890,1.0,18.3,2 
ENP,ioos.station.NOAA.NDBC:BDVF1:1,2014-12-14T00:00:00Z,25.4780,-80.9890,1.0,18.35,2 
ENP,ioos.station.NOAA.NDBC:BDVF1:1,2014-12-14T01:00:00Z,25.4780,-80.9890,1.0,18.4,2 
ENP,ioos.station.NOAA.NDBC:BDVF1:1,2014-12-14T02:00:00Z,25.4780,-80.9890,1.0,18.38,2 
ENP,ioos.station.NOAA.NDBC:BDVF1:1,2014-12-14T04:00:00Z,25.4780,-80.9890,1.0,18.28,2 
ENP,ioos.station.NOAA.NDBC:BDVF1:1,2014-12-14T05:00:00Z,25.4780,-80.9890,1.0,18.19,2 
ENP,ioos.station.NOAA.NDBC:BDVF1:1,2014-12-14T06:00:00Z,25.4780,-80.9890,1.0,18.07,2 
ENP,ioos.station.NOAA.NDBC:BDVF1:1,2014-12-14T07:00:00Z,25.4780,-80.9890,1.0,17.96,2 
ENP,ioos.station.NOAA.NDBC:BDVF1:1,2014-12-14T08:00:00Z,25.4780,-80.9890,1.0,17.85,2 
ENP,ioos.station.NOAA.NDBC:BDVF1:1,2014-12-14T09:00:00Z,25.4780,-80.9890,1.0,17.75,2 
ENP,ioos.station.NOAA.NDBC:BDVF1:1,2014-12-14T10:00:00Z,25.4780,-80.9890,1.0,17.63,2 
ENP,ioos.station.NOAA.NDBC:BDVF1:1,2014-12-14T11:00:00Z,25.4780,-80.9890,1.0,17.53,2 
ENP,ioos.station.NOAA.NDBC:BDVF1:1,2014-12-14T12:00:00Z,25.4780,-80.9890,1.0,17.41,2 
ENP,ioos.station.NOAA.NDBC:BDVF1:1,2014-12-14T13:00:00Z,25.4780,-80.9890,1.0,17.31,2 
ENP,ioos.station.NOAA.NDBC:BDVF1:1,2014-12-14T14:00:00Z,25.4780,-80.9890,1.0,17.23,2 
ENP,ioos.station.NOAA.NDBC:BDVF1:1,2014-12-14T15:00:00Z,25.4780,-80.9890,1.0,17.2,2 
ENP,ioos.station.NOAA.NDBC:BDVF1:1,2014-12-14T16:00:00Z,25.4780,-80.9890,1.0,17.22,2 
ENP,ioos.station.NOAA.NDBC:BDVF1:1,2014-12-14T17:00:00Z,25.4780,-80.9890,1.0,17.38,2 
ENP,ioos.station.NOAA.NDBC:BDVF1:1,2014-12-14T18:00:00Z,25.4780,-80.9890,1.0,17.6,2 
ENP,ioos.station.NOAA.NDBC:BDVF1:1,2014-12-14T19:00:00Z,25.4780,-80.9890,1.0,17.85,2 
ENP,ioos.station.NOAA.NDBC:BDVF1:1,2014-12-14T20:00:00Z,25.4780,-80.9890,1.0,18.12,2 
ENP,ioos.station.NOAA.NDBC:BDVF1:1,2014-12-14T21:00:00Z,25.4780,-80.9890,1.0,18.31,2 
ENP,ioos.station.NOAA.NDBC:BDVF1:1,2014-12-14T22:00:00Z,25.4780,-80.9890,1.0,18.43,2 
ENP,ioos.station.NOAA.NDBC:BDVF1:1,2014-12-14T23:00:00Z,25.4780,-80.9890,1.0,18.41,2 
ENP,ioos.station.NOAA.NDBC:BDVF1:1,2014-12-15T00:00:00Z,25.4780,-80.9890,1.0,18.42,2 
ENP,ioos.station.NOAA.NDBC:BDVF1:1,2014-12-15T01:00:00Z,25.4780,-80.9890,1.0,18.47,2 
ENP,ioos.station.NOAA.NDBC:BDVF1:1,2014-12-15T02:00:00Z,25.4780,-80.9890,1.0,18.4,2 
ENP,ioos.station.NOAA.NDBC:BDVF1:1,2014-12-15T06:00:00Z,25.4780,-80.9890,1.0,17.95,2 
ENP,ioos.station.NOAA.NDBC:BDVF1:1,2014-12-15T07:00:00Z,25.4780,-80.9890,1.0,17.82,2 
ENP,ioos.station.NOAA.NDBC:BDVF1:1,2014-12-15T08:00:00Z,25.4780,-80.9890,1.0,17.71,2 
ENP,ioos.station.NOAA.NDBC:BDVF1:1,2014-12-15T09:00:00Z,25.4780,-80.9890,1.0,17.58,2 
ENP,ioos.station.NOAA.NDBC:BDVF1:1,2014-12-15T10:00:00Z,25.4780,-80.9890,1.0,17.47,2 
ENP,ioos.station.NOAA.NDBC:BDVF1:1,2014-12-15T11:00:00Z,25.4780,-80.9890,1.0,17.35,2 
ENP,ioos.station.NOAA.NDBC:BDVF1:1,2014-12-15T12:00:00Z,25.4780,-80.9890,1.0,17.24,2 
ENP,ioos.station.NOAA.NDBC:BDVF1:1,2014-12-15T13:00:00Z,25.4780,-80.9890,1.0,17.14,2 
ENP,ioos.station.NOAA.NDBC:BDVF1:1,2014-12-15T14:00:00Z,25.4780,-80.9890,1.0,17.1,2 
ENP,ioos.station.NOAA.NDBC:BDVF1:1,2014-12-15T15:00:00Z,25.4780,-80.9890,1.0,17.1,2 
ENP,ioos.station.NOAA.NDBC:BDVF1:1,2014-12-15T16:00:00Z,25.4780,-80.9890,1.0,17.15,2 
ENP,ioos.station.NOAA.NDBC:BDVF1:1,2014-12-15T17:00:00Z,25.4780,-80.9890,1.0,17.26,2 
ENP,ioos.station.NOAA.NDBC:BDVF1:1,2014-12-15T18:00:00Z,25.4780,-80.9890,1.0,17.51,2 
ENP,ioos.station.NOAA.NDBC:BDVF1:1,2014-12-15T19:00:00Z,25.4780,-80.9890,1.0,17.89,2 
ENP,ioos.station.NOAA.NDBC:BDVF1:1,2014-12-15T20:00:00Z,25.4780,-80.9890,1.0,18.21,2 
ENP,ioos.station.NOAA.NDBC:BDVF1:1,2014-12-15T21:00:00Z,25.4780,-80.9890,1.0,18.54,2 
ENP,ioos.station.NOAA.NDBC:BDVF1:1,2014-12-15T22:00:00Z,25.4780,-80.9890,1.0,18.78,2 
ENP,ioos.station.NOAA.NDBC:BDVF1:1,2014-12-15T23:00:00Z,25.4780,-80.9890,1.0,18.9,2 
ENP,ioos.station.NOAA.NDBC:BDVF1:1,2014-12-16T00:00:00Z,25.4780,-80.9890,1.0,18.93,2 
ENP,ioos.station.NOAA.NDBC:BDVF1:1,2014-12-16T01:00:00Z,25.4780,-80.9890,1.0,18.81,2 
ENP,ioos.station.NOAA.NDBC:BDVF1:1,2014-12-16T02:00:00Z,25.4780,-80.9890,1.0,18.75,2 
ENP,ioos.station.NOAA.NDBC:BDVF1:1,2014-12-16T03:00:00Z,25.4780,-80.9890,1.0,18.63,2 
ENP,ioos.station.NOAA.NDBC:BDVF1:1,2014-12-16T05:00:00Z,25.4780,-80.9890,1.0,18.41,2 
ENP,ioos.station.NOAA.NDBC:BDVF1:1,2014-12-16T06:00:00Z,25.4780,-80.9890,1.0,18.29,2 
ENP,ioos.station.NOAA.NDBC:BDVF1:1,2014-12-16T07:00:00Z,25.4780,-80.9890,1.0,18.18,2 
ENP,ioos.station.NOAA.NDBC:BDVF1:1,2014-12-16T08:00:00Z,25.4780,-80.9890,1.0,18.08,2 
ENP,ioos.station.NOAA.NDBC:BDVF1:1,2014-12-16T09:00:00Z,25.4780,-80.9890,1.0,17.97,2 
ENP,ioos.station.NOAA.NDBC:BDVF1:1,2014-12-16T10:00:00Z,25.4780,-80.9890,1.0,17.86,2 
ENP,ioos.station.NOAA.NDBC:BDVF1:1,2014-12-16T12:00:00Z,25.4780,-80.9890,1.0,17.65,2 
ENP,ioos.station.NOAA.NDBC:BDVF1:1,2014-12-16T13:00:00Z,25.4780,-80.9890,1.0,17.53,2 
ENP,ioos.station.NOAA.NDBC:BDVF1:1,2014-12-16T14:00:00Z,25.4780,-80.9890,1.0,17.47,2 
ENP,ioos.station.NOAA.NDBC:BDVF1:1,2014-12-16T15:00:00Z,25.4780,-80.9890,1.0,17.48,2 
ENP,ioos.station.NOAA.NDBC:BDVF1:1,2014-12-16T16:00:00Z,25.4780,-80.9890,1.0,17.53,2 
ENP,ioos.station.NOAA.NDBC:BDVF1:1,2014-12-16T17:00:00Z,25.4780,-80.9890,1.0,17.72,2 
ENP,ioos.station.NOAA.NDBC:BDVF1:1,2014-12-16T18:00:00Z,25.4780,-80.9890,1.0,17.97,2 
ENP,ioos.station.NOAA.NDBC:BDVF1:1,2014-12-16T19:00:00Z,25.4780,-80.9890,1.0,18.25,2 
ENP,ioos.station.NOAA.NDBC:BDVF1:1,2014-12-16T20:00:00Z,25.4780,-80.9890,1.0,18.48,2 
ENP,ioos.station.NOAA.NDBC:BDVF1:1,2014-12-16T21:00:00Z,25.4780,-80.9890,1.0,18.93,2 
ENP,ioos.station.NOAA.NDBC:BDVF1:1,2014-12-16T22:00:00Z,25.4780,-80.9890,1.0,19.46,2 
ENP,ioos.station.NOAA.NDBC:BDVF1:1,2014-12-16T23:00:00Z,25.4780,-80.9890,1.0,19.56,2 
ENP,ioos.station.NOAA.NDBC:BDVF1:1,2014-12-17T00:00:00Z,25.4780,-80.9890,1.0,19.46,2 
ENP,ioos.station.NOAA.NDBC:BDVF1:1,2014-12-17T01:00:00Z,25.4780,-80.9890,1.0,19.29,2 
ENP,ioos.station.NOAA.NDBC:BDVF1:1,2014-12-17T02:00:00Z,25.4780,-80.9890,1.0,19.11,2 
ENP,ioos.station.NOAA.NDBC:BDVF1:1,2014-12-17T04:00:00Z,25.4780,-80.9890,1.0,18.83,2 
ENP,ioos.station.NOAA.NDBC:BDVF1:1,2014-12-17T05:00:00Z,25.4780,-80.9890,1.0,18.67,2 
ENP,ioos.station.NOAA.NDBC:BDVF1:1,2014-12-17T06:00:00Z,25.4780,-80.9890,1.0,18.56,2 
ENP,ioos.station.NOAA.NDBC:BDVF1:1,2014-12-17T07:00:00Z,25.4780,-80.9890,1.0,18.46,2 
ENP,ioos.station.NOAA.NDBC:BDVF1:1,2014-12-17T08:00:00Z,25.4780,-80.9890,1.0,18.33,2 
ENP,ioos.station.NOAA.NDBC:BDVF1:1,2014-12-17T09:00:00Z,25.4780,-80.9890,1.0,18.19,2 
ENP,ioos.station.NOAA.NDBC:BDVF1:1,2014-12-17T10:00:00Z,25.4780,-80.9890,1.0,18.05,2 
ENP,ioos.station.NOAA.NDBC:BDVF1:1,2014-12-17T11:00:00Z,25.4780,-80.9890,1.0,17.91,2 
ENP,ioos.station.NOAA.NDBC:BDVF1:1,2014-12-17T12:00:00Z,25.4780,-80.9890,1.0,17.77,2 
ENP,ioos.station.NOAA.NDBC:BDVF1:1,2014-12-17T13:00:00Z,25.4780,-80.9890,1.0,17.64,2 
ENP,ioos.station.NOAA.NDBC:BDVF1:1,2014-12-17T14:00:00Z,25.4780,-80.9890,1.0,17.55,2 
ENP,ioos.station.NOAA.NDBC:BDVF1:1,2014-12-17T15:00:00Z,25.4780,-80.9890,1.0,17.57,2 
ENP,ioos.station.NOAA.NDBC:BDVF1:1,2014-12-17T16:00:00Z,25.4780,-80.9890,1.0,17.64,2 
ENP,ioos.station.NOAA.NDBC:BDVF1:1,2014-12-17T17:00:00Z,25.4780,-80.9890,1.0,17.73,2 
ENP,ioos.station.NOAA.NDBC:BDVF1:1,2014-12-17T18:00:00Z,25.4780,-80.9890,1.0,17.97,2 
ENP,ioos.station.NOAA.NDBC:BDVF1:1,2014-12-17T19:00:00Z,25.4780,-80.9890,1.0,18.72,2 
ENP,ioos.station.NOAA.NDBC:BDVF1:1,2014-12-17T20:00:00Z,25.4780,-80.9890,1.0,19.42,2 
ENP,ioos.station.NOAA.NDBC:BDVF1:1,2014-12-17T21:00:00Z,25.4780,-80.9890,1.0,19.76,2 
ENP,ioos.station.NOAA.NDBC:BDVF1:1,2014-12-17T22:00:00Z,25.4780,-80.9890,1.0,19.98,2 
ENP,ioos.station.NOAA.NDBC:BDVF1:1,2014-12-17T23:00:00Z,25.4780,-80.9890,1.0,19.96,2 
ENP,ioos.station.NOAA.NDBC:BDVF1:1,2014-12-18T00:00:00Z,25.4780,-80.9890,1.0,19.85,2 
ENP,ioos.station.NOAA.NDBC:BDVF1:1,2014-12-18T01:00:00Z,25.4780,-80.9890,1.0,19.6,2 
ENP,ioos.station.NOAA.NDBC:BDVF1:1,2014-12-18T02:00:00Z,25.4780,-80.9890,1.0,19.31,2 
ENP,ioos.station.NOAA.NDBC:BDVF1:1,2014-12-18T03:00:00Z,25.4780,-80.9890,1.0,19.09,2 
ENP,ioos.station.NOAA.NDBC:BDVF1:1,2014-12-18T04:00:00Z,25.4780,-80.9890,1.0,18.91,2 
ENP,ioos.station.NOAA.NDBC:BDVF1:1,2014-12-18T06:00:00Z,25.4780,-80.9890,1.0,18.73,2 
ENP,ioos.station.NOAA.NDBC:BDVF1:1,2014-12-18T07:00:00Z,25.4780,-80.9890,1.0,18.62,2 
ENP,ioos.station.NOAA.NDBC:BDVF1:1,2014-12-18T08:00:00Z,25.4780,-80.9890,1.0,18.51,2 
ENP,ioos.station.NOAA.NDBC:BDVF1:1,2014-12-18T09:00:00Z,25.4780,-80.9890,1.0,18.38,2 
ENP,ioos.station.NOAA.NDBC:BDVF1:1,2014-12-18T10:00:00Z,25.4780,-80.9890,1.0,18.28,2 
ENP,ioos.station.NOAA.NDBC:BDVF1:1,2014-12-18T11:00:00Z,25.4780,-80.9890,1.0,18.17,2 
ENP,ioos.station.NOAA.NDBC:BDVF1:1,2014-12-18T12:00:00Z,25.4780,-80.9890,1.0,18.06,2 
ENP,ioos.station.NOAA.NDBC:BDVF1:1,2014-12-18T13:00:00Z,25.4780,-80.9890,1.0,17.95,2 
ENP,ioos.station.NOAA.NDBC:BDVF1:1,2014-12-18T14:00:00Z,25.4780,-80.9890,1.0,17.89,2 
ENP,ioos.station.NOAA.NDBC:BDVF1:1,2014-12-18T15:00:00Z,25.4780,-80.9890,1.0,17.93,2 
ENP,ioos.station.NOAA.NDBC:BDVF1:1,2014-12-18T16:00:00Z,25.4780,-80.9890,1.0,18.08,2 
ENP,ioos.station.NOAA.NDBC:BDVF1:1,2014-12-18T17:00:00Z,25.4780,-80.9890,1.0,18.25,2 
ENP,ioos.station.NOAA.NDBC:BDVF1:1,2014-12-18T19:00:00Z,25.4780,-80.9890,1.0,18.82,2 
ENP,ioos.station.NOAA.NDBC:BDVF1:1,2014-12-18T20:00:00Z,25.4780,-80.9890,1.0,19.48,2 
ENP,ioos.station.NOAA.NDBC:BDVF1:1,2014-12-18T21:00:00Z,25.4780,-80.9890,1.0,19.78,2 
ENP,ioos.station.NOAA.NDBC:BDVF1:1,2014-12-18T22:00:00Z,25.4780,-80.9890,1.0,19.92,2 
ENP,ioos.station.NOAA.NDBC:BDVF1:1,2014-12-18T23:00:00Z,25.4780,-80.9890,1.0,20.02,2 
ENP,ioos.station.NOAA.NDBC:BDVF1:1,2014-12-19T00:00:00Z,25.4780,-80.9890,1.0,20.07,2 
ENP,ioos.station.NOAA.NDBC:BDVF1:1,2014-12-19T01:00:00Z,25.4780,-80.9890,1.0,19.95,2 
ENP,ioos.station.NOAA.NDBC:BDVF1:1,2014-12-19T02:00:00Z,25.4780,-80.9890,1.0,19.77,2 
ENP,ioos.station.NOAA.NDBC:BDVF1:1,2014-12-19T03:00:00Z,25.4780,-80.9890,1.0,19.62,2 
ENP,ioos.station.NOAA.NDBC:BDVF1:1,2014-12-19T04:00:00Z,25.4780,-80.9890,1.0,19.51,2 
ENP,ioos.station.NOAA.NDBC:BDVF1:1,2014-12-19T05:00:00Z,25.4780,-80.9890,1.0,19.45,2 
ENP,ioos.station.NOAA.NDBC:BDVF1:1,2014-12-19T07:00:00Z,25.4780,-80.9890,1.0,19.17,2 
ENP,ioos.station.NOAA.NDBC:BDVF1:1,2014-12-19T08:00:00Z,25.4780,-80.9890,1.0,19.05,2 
ENP,ioos.station.NOAA.NDBC:BDVF1:1,2014-12-19T09:00:00Z,25.4780,-80.9890,1.0,18.9,2 
ENP,ioos.station.NOAA.NDBC:BDVF1:1,2014-12-19T10:00:00Z,25.4780,-80.9890,1.0,18.79,2 
ENP,ioos.station.NOAA.NDBC:BDVF1:1,2014-12-19T11:00:00Z,25.4780,-80.9890,1.0,18.69,2 
ENP,ioos.station.NOAA.NDBC:BDVF1:1,2014-12-19T12:00:00Z,25.4780,-80.9890,1.0,18.57,2 
ENP,ioos.station.NOAA.NDBC:BDVF1:1,2014-12-19T13:00:00Z,25.4780,-80.9890,1.0,18.45,2 
ENP,ioos.station.NOAA.NDBC:BDVF1:1,2014-12-19T14:00:00Z,25.4780,-80.9890,1.0,18.37,2 
ENP,ioos.station.NOAA.NDBC:BDVF1:1,2014-12-19T15:00:00Z,25.4780,-80.9890,1.0,18.37,2 
ENP,ioos.station.NOAA.NDBC:BDVF1:1,2014-12-19T16:00:00Z,25.4780,-80.9890,1.0,18.48,2 
ENP,ioos.station.NOAA.NDBC:BDVF1:1,2014-12-19T17:00:00Z,25.4780,-80.9890,1.0,18.65,2 
ENP,ioos.station.NOAA.NDBC:BDVF1:1,2014-12-19T18:00:00Z,25.4780,-80.9890,1.0,18.82,2 
ENP,ioos.station.NOAA.NDBC:BDVF1:1,2014-12-19T19:00:00Z,25.4780,-80.9890,1.0,18.99,2 
ENP,ioos.station.NOAA.NDBC:BDVF1:1,2014-12-19T20:00:00Z,25.4780,-80.9890,1.0,19.22,2 
ENP,ioos.station.NOAA.NDBC:BDVF1:1,2014-12-19T21:00:00Z,25.4780,-80.9890,1.0,19.55,2 
ENP,ioos.station.NOAA.NDBC:BDVF1:1,2014-12-19T22:00:00Z,25.4780,-80.9890,1.0,19.81,2 
ENP,ioos.station.NOAA.NDBC:BDVF1:1,2014-12-19T23:00:00Z,25.4780,-80.9890,1.0,19.96,2 
ENP,ioos.station.NOAA.NDBC:BDVF1:1,2014-12-20T00:00:00Z,25.4780,-80.9890,1.0,20.03,2 
ENP,ioos.station.NOAA.NDBC:BDVF1:1,2014-12-20T01:00:00Z,25.4780,-80.9890,1.0,19.98,2 
ENP,ioos.station.NOAA.NDBC:BDVF1:1,2014-12-20T02:00:00Z,25.4780,-80.9890,1.0,19.8,2 
ENP,ioos.station.NOAA.NDBC:BDVF1:1,2014-12-20T03:00:00Z,25.4780,-80.9890,1.0,19.66,2 
ENP,ioos.station.NOAA.NDBC:BDVF1:1,2014-12-20T04:00:00Z,25.4780,-80.9890,1.0,19.51,2 
ENP,ioos.station.NOAA.NDBC:BDVF1:1,2014-12-20T05:00:00Z,25.4780,-80.9890,1.0,19.35,2 
ENP,ioos.station.NOAA.NDBC:BDVF1:1,2014-12-20T07:00:00Z,25.4780,-80.9890,1.0,19.22,2 
ENP,ioos.station.NOAA.NDBC:BDVF1:1,2014-12-20T08:00:00Z,25.4780,-80.9890,1.0,19.17,2 
ENP,ioos.station.NOAA.NDBC:BDVF1:1,2014-12-20T09:00:00Z,25.4780,-80.9890,1.0,19.11,2 
ENP,ioos.station.NOAA.NDBC:BDVF1:1,2014-12-20T10:00:00Z,25.4780,-80.9890,1.0,19.05,2 
ENP,ioos.station.NOAA.NDBC:BDVF1:1,2014-12-20T11:00:00Z,25.4780,-80.9890,1.0,18.99,2 
ENP,ioos.station.NOAA.NDBC:BDVF1:1,2014-12-20T12:00:00Z,25.4780,-80.9890,1.0,18.91,2 
ENP,ioos.station.NOAA.NDBC:BDVF1:1,2014-12-20T13:00:00Z,25.4780,-80.9890,1.0,18.85,2 
ENP,ioos.station.NOAA.NDBC:BDVF1:1,2014-12-20T14:00:00Z,25.4780,-80.9890,1.0,18.81,2 
ENP,ioos.station.NOAA.NDBC:BDVF1:1,2014-12-20T15:00:00Z,25.4780,-80.9890,1.0,18.86,2 
ENP,ioos.station.NOAA.NDBC:BDVF1:1,2014-12-20T16:00:00Z,25.4780,-80.9890,1.0,19.01,2 
ENP,ioos.station.NOAA.NDBC:BDVF1:1,2014-12-20T17:00:00Z,25.4780,-80.9890,1.0,19.03,2 
ENP,ioos.station.NOAA.NDBC:BDVF1:1,2014-12-20T18:00:00Z,25.4780,-80.9890,1.0,19.13,2 
ENP,ioos.station.NOAA.NDBC:BDVF1:1,2014-12-20T19:00:00Z,25.4780,-80.9890,1.0,19.34,2 
ENP,ioos.station.NOAA.NDBC:BDVF1:1,2014-12-20T20:00:00Z,25.4780,-80.9890,1.0,19.61,2 
ENP,ioos.station.NOAA.NDBC:BDVF1:1,2014-12-20T21:00:00Z,25.4780,-80.9890,1.0,19.87,2 
ENP,ioos.station.NOAA.NDBC:BDVF1:1,2014-12-20T22:00:00Z,25.4780,-80.9890,1.0,20.16,2 
ENP,ioos.station.NOAA.NDBC:BDVF1:1,2014-12-20T23:00:00Z,25.4780,-80.9890,1.0,20.3,2 
ENP,ioos.station.NOAA.NDBC:BDVF1:1,2014-12-21T00:00:00Z,25.4780,-80.9890,1.0,20.43,2 
ENP,ioos.station.NOAA.NDBC:BDVF1:1,2014-12-21T01:00:00Z,25.4780,-80.9890,1.0,20.49,2 
ENP,ioos.station.NOAA.NDBC:BDVF1:1,2014-12-21T02:00:00Z,25.4780,-80.9890,1.0,20.5,2 